Hourly Data Report for October 09, 2005

TORONTO CITY
ONTARIO

43°40'00.000" N
79°24'00.000" W
112.50 m
6158355
71508
XTO

Download Data

Hourly Data (October 2005)
Hourly Data Report for October 9, 2005
TIME
LST
Temp Definition
°C
Dew Point Definition
°C
Rel Hum Definition
%
Precip. Amount Definition
mm

Wind Dir Definition
10's deg

Wind Spd Definition
km/h
Visibility Definition
km
Stn Press Definition
kPa
Hmdx Definition


Wind Chill Definition


Weather Definition


00:00 9.2 2.0 61   LegendMM LegendMM   100.41     LegendNANA
01:00 7.9 2.5 69   LegendMM LegendMM   100.41     LegendNANA
02:00 7.3 2.3 71   LegendMM LegendMM   100.41     LegendNANA
03:00 6.8 2.2 72   LegendMM LegendMM   100.41     LegendNANA
04:00 6.3 2.0 74   LegendMM LegendMM   100.45     LegendNANA
05:00 6.0 2.0 75   LegendMM LegendMM   100.48     LegendNANA
06:00 5.6 1.9 77   LegendMM LegendMM   100.51     LegendNANA
07:00 5.5 1.8 77   LegendMM LegendMM   100.54     LegendNANA
08:00 6.9 2.4 73   LegendMM LegendMM   100.59     LegendNANA
09:00 8.2 3.1 70   LegendMM LegendMM   100.59     LegendNANA
10:00 9.5 3.5 66   LegendMM LegendMM   100.57     LegendNANA
11:00 11.3 5.6 68   LegendMM LegendMM   100.53     LegendNANA
12:00 12.3 5.5 63   LegendMM LegendMM   100.51     LegendNANA
13:00 13.8 6.4 61   LegendMM LegendMM   100.47     LegendNANA
14:00 14.0 6.7 61   LegendMM LegendMM   100.45     LegendNANA
15:00 12.2 7.0 71   LegendMM LegendMM   100.49     LegendNANA
16:00 11.8 7.3 74   LegendMM LegendMM   100.51     LegendNANA
17:00 11.3 7.6 78   LegendMM LegendMM   100.54     LegendNANA
18:00 11.2 8.4 83   LegendMM LegendMM   100.60     LegendNANA
19:00 11.5 8.7 83   LegendMM LegendMM   100.65     LegendNANA
20:00 11.8 9.0 83   LegendMM LegendMM   100.68     LegendNANA
21:00 11.9 9.0 82   LegendMM LegendMM   100.71     LegendNANA
22:00 12.0 8.9 81   LegendMM LegendMM   100.70     LegendNANA
23:00 12.0 8.5 79   LegendMM LegendMM   100.66     LegendNANA

Notes on Data Quality.

Legend

  • E = Estimated
  • M = Missing
  • NA = Not Available*
  • [empty] = Indicates an unobserved value
Date modified: